Theta_e
313 314 316 317 317 317 316 316 316 316 316 316 316 315 316 315 315 315 315 316 316 316 317 317 313 310 309 312 317 320 320 322 324 326 327 328 330 332 334 335 335 334 333 334 334 332 331 331 333 334 334 332 330 329 328 327 328 330 334 335 333 333 333 334 335 335 334 332 327 326 325 325 326 325 324 324 324 324 325 323 324 328 329 332 337 339 338 337
313 313 314 316 317 317 316 316 316 315 316 316 316 315 315 316 316 315 315 315 316 317 317 316 312 311 313 315 318 320 321 323 325 326 326 326 329 332 333 335 335 334 332 332 334 334 334 333 333 333 334 334 331 329 328 328 328 329 334 334 333 333 333 332 333 333 333 333 329 327 326 326 326 325 324 323 324 323 324 325 324 327 332 334 336 339 337 336
313 313 313 314 316 318 317 317 316 316 316 315 315 315 315 316 316 316 316 315 316 316 316 315 312 311 313 317 319 320 321 324 324 325 325 325 327 330 333 334 335 334 332 331 333 335 336 335 335 334 333 335 334 330 328 328 328 328 332 334 333 333 332 331 331 332 333 332 331 330 327 326 325 324 323 322 324 324 323 325 324 324 331 335 336 338 337 336
312 313 313 313 314 316 317 317 317 316 316 316 315 315 315 315 316 316 316 315 314 314 314 314 313 312 311 315 318 320 322 322 322 322 323 325 325 328 332 334 334 334 334 332 332 334 336 335 335 334 332 336 337 333 330 328 329 328 330 331 332 331 331 331 331 331 332 332 332 330 326 325 326 324 323 323 323 324 324 324 325 323 327 334 335 337 337 336
311 312 313 313 313 315 316 317 317 316 316 317 316 315 315 315 314 314 314 313 313 312 313 314 314 313 311 312 315 319 320 318 321 321 319 323 324 326 329 332 333 334 334 334 334 335 336 334 334 334 333 335 337 337 332 328 328 328 329 330 329 330 330 330 330 330 330 329 330 330 327 325 326 324 324 324 323 324 325 324 325 323 324 332 334 336 337 337
310 312 312 312 312 313 315 316 317 316 316 316 316 315 315 314 313 313 313 313 313 313 313 315 315 313 312 311 314 320 319 316 324 326 320 322 323 323 326 330 332 333 334 335 335 336 335 333 334 335 336 336 336 337 335 330 328 329 329 329 329 329 329 330 329 330 330 329 329 330 329 328 327 325 324 324 323 324 325 323 325 324 324 330 333 335 337 338
310 311 312 312 312 312 314 315 317 317 316 316 315 315 315 313 313 313 312 313 314 314 314 315 315 314 312 312 315 320 320 319 325 327 325 324 323 322 323 327 330 332 334 335 336 335 334 333 335 335 335 337 335 335 335 332 330 329 330 329 329 329 328 329 329 330 330 329 330 329 328 328 327 326 325 325 324 324 325 324 325 325 328 331 333 335 336 337
309 310 311 312 312 312 313 314 316 317 317 316 315 315 315 313 313 314 312 312 314 315 314 314 314 314 312 314 317 318 319 319 322 324 326 326 325 323 323 325 329 332 334 335 335 335 334 334 335 334 336 337 334 333 334 336 336 332 330 330 328 329 328 329 329 329 328 327 329 329 327 326 326 326 326 327 326 326 325 324 324 325 330 334 334 335 335 337
308 309 311 311 312 312 312 313 315 316 316 317 315 314 314 313 313 314 312 311 313 315 315 314 314 314 313 315 316 315 316 316 317 319 324 328 327 326 326 328 329 331 334 335 334 335 335 336 336 335 335 335 331 331 332 336 337 331 331 332 328 329 328 329 330 328 328 326 327 328 327 326 327 327 326 327 327 328 326 324 325 326 329 333 335 335 335 336
307 309 310 311 311 312 312 312 313 315 316 317 316 314 314 313 313 314 312 311 312 313 314 314 314 314 314 316 315 314 315 314 315 316 319 326 329 329 329 331 330 331 334 334 334 334 334 335 335 332 332 332 330 330 330 332 331 327 328 329 326 327 327 329 330 329 328 326 326 328 327 326 327 327 327 328 327 328 328 326 324 325 327 329 332 334 333 333
307 308 309 311 311 311 312 311 312 314 315 317 316 315 315 314 314 314 312 311 311 312 314 314 314 314 315 316 314 314 315 315 316 315 317 322 328 331 330 331 331 332 333 333 334 333 334 334 331 330 332 332 330 331 330 329 328 326 327 327 325 326 327 328 329 330 329 326 326 326 326 326 327 326 325 328 327 326 327 327 326 325 326 327 328 332 332 331
307 308 308 310 311 311 312 311 312 313 315 316 316 315 314 314 314 314 312 310 310 311 313 314 314 314 315 315 313 313 316 319 320 320 320 319 323 329 330 330 331 332 332 333 333 333 334 332 329 331 332 330 329 331 330 328 329 327 327 327 327 326 327 328 328 329 328 327 326 324 325 326 326 327 324 325 327 325 325 326 328 325 325 326 326 329 333 331
307 307 308 309 310 311 312 312 312 313 314 315 316 315 314 314 315 314 312 311 309 310 312 313 315 315 314 314 312 312 314 318 321 322 323 321 321 326 329 330 331 332 332 332 332 333 333 331 329 331 330 329 330 329 328 326 327 329 328 328 329 329 329 329 328 329 329 328 327 326 326 327 327 327 326 325 325 325 325 325 326 326 325 326 326 327 332 332
307 307 307 308 310 310 311 312 312 312 313 314 316 315 314 314 315 313 312 310 309 309 311 313 315 315 314 314 312 311 311 313 316 318 321 322 321 324 328 330 330 330 331 331 330 331 331 328 328 330 330 330 329 327 327 327 328 329 331 331 331 332 331 329 329 330 330 330 328 327 326 328 328 328 328 327 326 324 325 325 324 325 325 325 326 326 329 331
307 308 308 308 310 310 309 311 312 312 313 314 315 315 314 314 314 313 312 310 309 309 311 313 314 314 312 312 312 312 312 312 314 316 320 324 323 324 327 330 330 329 329 329 329 329 329 326 327 330 329 328 328 329 331 330 329 329 333 335 332 333 332 329 330 330 331 330 328 327 326 327 328 329 329 329 328 325 325 326 325 325 326 325 325 325 326 328
306 307 307 308 309 309 309 310 311 312 313 313 315 315 314 313 313 313 312 310 309 309 312 313 314 313 311 312 312 312 313 314 314 313 317 321 323 325 326 328 330 328 328 328 327 328 327 326 327 329 327 328 331 334 334 333 332 329 332 335 333 333 333 331 331 331 332 331 329 327 326 328 329 329 329 329 330 328 325 326 326 326 326 326 326 324 324 326
306 306 307 308 308 309 308 310 311 312 313 314 314 315 313 313 313 313 312 311 311 312 313 313 312 313 312 312 313 314 314 314 313 312 314 317 320 324 326 327 329 327 326 326 327 327 327 328 328 327 328 328 331 336 337 337 335 332 331 333 333 333 333 332 332 330 330 332 331 327 325 327 329 329 329 328 329 329 326 326 327 327 327 328 327 325 325 326
306 306 306 307 308 309 308 309 311 312 313 314 314 314 313 313 313 313 313 312 312 313 313 312 312 312 312 311 312 314 314 314 314 312 312 314 317 323 326 327 327 326 325 325 326 327 327 328 328 329 330 329 330 334 337 336 335 333 332 332 333 332 331 332 330 332 334 332 331 328 325 326 327 327 328 327 328 329 328 327 328 328 328 329 328 326 326 326
306 306 306 307 308 309 308 308 310 311 313 314 314 314 313 313 312 312 312 311 312 313 312 312 311 311 313 312 311 312 314 314 314 312 312 312 315 323 325 325 326 326 327 327 327 326 327 328 328 330 332 330 330 332 333 332 331 332 332 332 333 332 332 331 329 335 338 334 332 329 328 328 328 328 327 327 328 329 329 328 328 329 330 330 330 329 327 327
307 306 307 307 308 309 308 308 310 311 313 314 314 313 313 314 313 312 311 310 311 312 312 311 311 310 312 316 312 310 313 315 313 313 312 312 314 322 324 323 325 327 327 329 328 326 327 329 329 328 330 329 329 329 329 329 329 329 330 331 332 331 331 330 330 336 336 332 332 330 330 331 330 330 328 327 328 328 329 329 329 329 330 331 330 331 331 331
307 307 307 307 307 308 307 307 310 311 312 313 313 313 314 314 312 312 313 311 311 311 311 311 311 311 312 317 316 310 313 316 315 313 313 312 315 322 323 322 326 329 328 329 328 327 327 330 329 327 327 327 327 327 328 329 328 328 329 330 331 330 330 329 331 335 333 331 332 331 332 331 330 330 329 329 330 329 329 329 329 329 329 330 330 331 332 332
306 306 307 307 307 308 307 307 309 311 312 313 313 312 313 312 309 310 312 311 310 311 311 311 311 312 312 315 316 312 314 317 316 315 314 314 318 322 322 323 327 329 328 329 329 329 329 329 328 327 325 325 326 326 327 329 329 329 330 330 331 329 330 329 330 332 331 333 334 333 333 332 330 329 329 329 329 329 330 329 330 330 329 329 329 330 330 332
306 307 307 307 306 307 307 307 308 310 312 312 312 312 312 310 307 308 309 309 309 310 311 312 312 312 312 314 315 315 316 317 317 318 316 317 320 320 321 325 326 327 328 329 330 331 331 329 326 326 325 325 327 327 328 328 329 330 330 330 330 328 329 330 330 330 330 332 333 333 333 331 330 329 329 329 328 328 330 330 330 331 331 330 329 330 330 331
306 307 306 307 307 307 307 307 309 310 312 313 312 312 311 309 307 307 307 307 309 310 310 311 312 312 312 312 313 315 316 316 316 318 318 318 319 318 319 322 324 326 327 327 328 330 330 328 325 325 325 325 326 327 328 329 329 330 330 330 329 328 327 328 328 329 330 332 331 332 334 332 330 330 329 328 329 328 329 330 330 331 332 332 332 331 331 331
306 307 306 306 307 306 306 308 310 311 311 312 312 312 310 308 307 307 306 307 309 310 310 311 311 312 312 311 312 314 315 315 315 318 318 318 318 318 317 319 323 325 325 326 327 329 328 326 325 326 326 326 326 326 327 329 329 329 329 329 328 327 327 327 328 328 330 331 330 332 336 334 329 330 330 328 328 328 328 329 329 330 331 332 332 332 332 332
305 306 306 306 306 306 306 308 310 311 310 311 311 311 309 308 307 306 306 308 309 309 310 310 311 311 312 312 313 313 314 315 315 317 319 317 317 318 316 317 321 323 323 324 327 327 327 326 326 326 327 327 327 326 327 328 329 329 329 328 327 327 327 328 328 330 332 331 330 332 335 334 330 329 330 329 330 329 329 329 329 330 329 329 331 330 330 331
305 306 306 305 305 306 307 308 309 310 310 310 311 310 308 307 306 306 308 308 309 310 309 309 310 310 311 313 313 311 312 314 314 318 320 318 317 318 316 315 318 321 321 323 326 327 325 326 327 326 327 328 327 327 326 326 328 329 327 328 328 327 328 328 328 329 330 329 329 331 334 335 334 330 329 329 330 331 330 330 330 330 330 329 330 330 330 329
305 305 305 305 306 307 308 308 309 309 309 310 311 309 307 307 306 307 308 307 309 310 309 309 309 309 311 313 312 310 312 314 314 317 320 319 319 319 318 316 317 319 321 323 325 326 325 325 326 325 326 327 327 326 325 325 327 327 328 328 327 326 327 327 328 329 328 329 330 329 331 336 334 329 329 330 330 330 330 330 330 330 331 331 330 330 330 329
304 305 305 306 307 307 307 308 309 308 308 310 310 307 306 307 307 308 308 308 309 309 309 310 309 309 311 313 313 310 310 312 313 316 320 320 319 319 319 318 317 318 320 323 324 325 325 325 324 325 327 327 325 324 325 325 326 327 328 327 326 330 330 329 330 329 329 331 331 328 329 334 333 327 327 330 329 328 328 328 328 329 331 332 332 330 330 329
304 305 306 306 307 307 307 308 308 308 309 310 308 307 308 308 308 309 308 308 308 308 308 309 308 309 312 313 313 311 310 312 314 317 320 319 319 319 319 319 319 319 320 322 323 323 324 323 324 325 326 326 324 324 324 324 325 327 328 328 330 334 334 333 331 329 329 332 331 327 326 331 333 329 325 328 327 327 327 328 328 329 330 332 333 332 330 329
304 305 306 307 307 307 306 307 308 309 309 308 307 307 308 307 308 308 307 307 308 308 310 309 308 310 312 313 313 312 311 312 314 318 319 318 319 320 319 319 320 321 322 323 322 322 322 323 324 325 324 324 325 326 326 325 327 327 328 329 330 331 332 332 330 329 331 333 331 328 326 329 333 330 325 326 326 325 326 327 329 330 330 330 332 332 331 331
305 305 306 306 307 306 305 306 308 309 309 307 307 307 307 306 307 307 307 307 308 309 311 310 309 310 311 312 313 312 311 311 313 317 318 317 318 320 319 319 319 320 321 321 321 322 322 322 323 324 323 323 325 327 327 327 328 327 329 330 329 329 330 329 328 330 331 331 332 331 329 330 331 327 325 326 326 326 325 325 328 330 330 330 331 331 332 332
305 305 306 306 306 306 306 307 308 308 308 307 306 306 306 306 306 307 307 307 308 309 310 309 309 310 311 310 311 311 311 311 311 315 317 316 317 318 318 318 318 318 319 319 319 321 322 321 322 324 324 323 324 326 327 327 326 326 327 328 328 328 328 327 326 328 328 328 329 330 330 332 331 326 326 325 324 325 325 325 327 328 330 331 332 333 334 335
304 306 306 306 306 307 307 308 309 308 307 306 305 305 306 306 307 307 306 306 309 309 310 310 309 310 311 310 311 311 311 311 310 313 316 317 316 316 317 317 317 318 320 319 318 319 320 321 322 323 324 323 323 324 325 326 326 325 324 326 326 325 327 327 326 327 328 328 329 329 330 333 332 327 327 326 325 324 324 325 327 328 332 334 335 336 336 336
303 304 305 306 307 306 307 308 309 307 306 305 305 305 306 306 307 307 305 307 310 310 310 310 310 311 311 309 310 311 311 311 310 311 314 316 316 316 316 316 317 317 320 320 318 318 318 320 322 322 322 322 322 323 322 324 327 326 324 326 326 324 325 326 327 328 330 330 331 330 331 333 329 324 326 327 327 326 325 324 325 325 327 330 332 334 335 335
303 304 304 305 307 306 307 309 308 306 305 304 305 306 306 307 307 306 305 307 311 311 310 311 310 311 311 310 309 311 311 311 310 310 312 313 315 315 315 316 317 317 318 319 318 318 317 318 321 323 322 321 322 322 321 324 327 326 326 327 326 323 324 326 327 326 327 327 328 328 329 332 330 327 326 325 327 328 328 326 324 324 325 325 328 331 332 333
304 304 304 305 306 307 308 308 307 305 304 305 306 307 306 307 307 305 305 308 311 311 311 311 311 311 312 311 309 310 311 311 311 310 310 311 312 314 315 315 316 317 317 317 317 319 320 320 322 323 322 321 320 322 322 322 323 326 326 325 324 324 325 325 326 325 325 325 325 324 326 331 334 332 328 326 328 329 329 328 326 326 327 327 328 330 331 333
304 304 304 305 305 307 308 308 306 305 304 306 307 307 307 307 306 304 306 309 311 311 310 311 311 310 312 311 310 310 310 311 311 310 310 311 311 312 313 314 316 316 317 317 317 320 323 323 323 323 323 322 320 322 324 323 320 325 327 324 324 326 326 325 326 326 326 326 325 323 323 326 330 329 327 327 329 329 329 328 328 327 327 328 328 330 331 332
303 303 305 305 306 307 308 307 305 304 304 307 308 308 307 306 306 305 306 310 311 310 310 311 311 310 311 311 310 310 310 310 311 311 310 310 310 311 311 312 314 316 316 317 317 319 322 321 322 324 323 322 322 323 324 324 322 324 327 325 323 325 326 325 325 325 325 326 326 326 325 325 326 324 323 326 327 328 329 328 328 328 327 328 329 330 331 331
303 304 305 306 307 308 308 305 303 303 305 307 308 307 306 306 305 306 308 311 311 310 311 311 310 311 312 311 310 310 310 310 311 311 310 310 310 311 310 310 312 315 316 316 316 318 320 320 321 324 325 325 325 324 323 323 323 324 326 326 324 325 327 327 325 323 324 326 325 326 325 325 324 323 323 325 325 326 328 329 329 328 328 329 328 329 329 329
304 305 306 307 308 308 306 304 302 304 306 308 308 306 305 305 305 306 308 311 311 311 312 311 310 310 312 312 311 311 311 310 310 310 310 310 310 311 311 309 310 313 316 317 316 316 318 319 319 321 324 326 325 323 321 322 322 322 323 324 324 325 327 328 326 325 325 325 324 325 325 324 324 325 325 324 325 326 327 329 329 328 328 327 327 328 328 331
305 305 306 307 308 306 305 304 303 304 306 307 306 304 305 306 305 306 308 310 310 311 312 312 311 310 311 312 312 312 312 311 310 309 310 310 309 310 312 311 310 311 314 317 317 316 316 318 319 319 320 323 324 324 323 322 322 322 322 322 322 323 325 326 325 325 326 326 325 326 326 325 323 326 328 327 327 327 327 329 329 328 327 327 328 328 330 333
305 306 307 307 307 305 304 305 305 305 306 306 304 304 305 307 306 306 308 310 309 310 311 311 311 311 311 312 312 312 312 312 311 310 310 310 309 309 311 312 310 310 313 315 317 317 316 318 319 318 318 319 321 323 322 320 321 323 323 321 321 322 323 323 323 323 324 325 326 327 328 326 322 326 330 330 330 329 328 330 331 330 328 328 330 333 336 339
304 306 307 307 306 304 305 306 305 305 305 304 304 305 305 307 308 307 308 309 310 309 309 310 311 312 311 312 313 315 314 313 312 312 311 311 311 311 312 313 312 310 312 315 317 317 317 318 317 318 318 318 319 320 320 319 319 321 322 322 322 322 323 323 323 323 323 324 326 328 328 325 323 326 327 326 328 328 330 331 330 331 332 333 336 340 340 340
305 307 307 307 305 305 305 305 305 306 305 305 305 305 304 306 308 308 308 310 309 307 307 309 312 312 311 313 314 315 315 314 313 312 312 312 312 313 314 314 313 311 311 315 317 315 316 317 316 316 317 317 317 320 320 319 320 321 322 322 322 323 324 324 324 325 325 325 326 327 327 325 324 325 325 324 324 324 328 331 329 331 335 336 338 340 339 339
306 306 306 305 304 304 304 303 305 306 305 306 306 305 304 306 307 308 309 310 309 308 307 308 311 312 312 312 313 313 313 314 313 314 314 313 313 313 315 316 315 313 313 318 319 316 316 317 316 315 315 313 315 321 324 323 324 324 323 322 322 323 324 325 325 325 325 326 326 326 326 326 326 325 324 324 324 324 326 330 328 328 331 334 338 340 337 336
305 305 305 303 303 303 303 303 305 306 305 306 307 305 305 306 306 307 308 309 310 311 311 310 309 311 311 311 311 312 312 313 313 313 313 313 313 314 315 317 317 317 316 318 319 317 317 317 316 316 315 313 313 319 324 327 327 325 323 322 323 323 324 325 326 325 325 326 327 325 326 327 326 324 323 324 325 325 326 328 329 329 331 333 336 336 333 331
303 304 302 302 303 304 304 304 305 305 305 306 306 305 306 306 306 306 307 308 309 310 312 311 309 309 310 310 310 310 311 311 311 312 312 312 313 313 313 313 315 317 317 316 316 316 316 316 317 317 317 315 314 314 318 323 325 325 325 324 324 324 324 325 325 325 325 327 326 325 325 327 325 323 323 322 324 326 325 327 329 329 331 333 333 333 332 331
301 302 300 301 303 305 305 305 305 305 306 306 306 306 306 306 306 305 306 308 309 308 309 310 310 309 310 309 308 309 309 309 310 310 309 310 311 311 311 311 312 315 316 315 315 315 315 316 317 317 317 316 316 316 315 316 318 319 321 322 322 321 321 322 322 322 323 325 325 325 326 326 324 323 324 322 323 325 325 327 328 327 330 332 331 331 330 329
301 302 302 302 303 304 305 305 305 305 305 305 306 305 305 305 305 305 305 307 309 308 307 308 309 309 309 309 308 308 308 307 309 310 309 309 311 311 310 310 311 313 315 316 315 313 314 316 316 316 317 316 316 317 317 317 316 316 317 318 319 319 319 319 318 318 319 320 321 323 324 325 324 322 324 324 324 326 326 326 326 327 330 330 328 329 328 326
298 299 301 303 304 304 304 305 305 305 305 305 305 305 305 305 305 305 305 306 307 307 306 307 309 309 309 310 309 308 309 308 310 311 310 309 310 311 311 311 311 312 314 317 317 313 313 315 316 316 317 316 316 317 318 319 318 318 317 316 317 319 319 319 318 318 318 318 319 320 321 323 324 323 324 324 324 324 325 325 326 328 329 329 328 329 330 328
297 298 300 303 305 304 305 305 305 305 305 305 305 305 305 306 306 306 306 306 306 307 306 306 308 308 308 308 308 309 309 309 309 310 310 309 309 310 310 310 312 312 314 318 319 315 313 314 315 316 316 316 316 316 317 318 319 320 319 317 317 318 319 319 318 319 319 319 320 320 321 323 324 325 326 325 323 323 324 324 326 328 328 329 328 328 329 329
Wind_Speed
31 31 31 32 34 36 36 34 33 31 29 28 26 25 24 22 22 20 20 19 18 17 15 14 12 11 12 11 9 8 7 9 13 16 20 22 20 16 11 10 16 14 8 8 9 9 8 9 10 11 9 5 4 3 5 5 3 2 2 3 4 5 5 5 5 5 2 1 4 5 4 3 4 4 1 2 2 1 3 3 4 5 7 10 14 19 21 20
31 31 31 32 33 35 37 35 35 33 31 29 28 26 25 23 22 21 20 20 18 17 17 16 14 12 11 10 9 7 6 9 13 19 28 25 18 18 17 15 14 13 11 11 11 11 10 7 8 9 7 4 4 4 5 4 4 4 3 4 5 6 6 6 7 6 4 1 3 5 4 3 2 7 3 2 4 4 4 4 5 6 8 10 14 20 21 20
31 32 32 32 33 34 35 35 35 35 33 31 29 28 26 24 23 22 21 20 20 20 18 16 14 12 11 9 8 5 5 9 13 22 28 26 22 20 19 20 18 15 15 12 10 9 7 6 9 6 5 5 4 4 5 4 4 4 3 4 6 7 8 9 10 8 4 4 3 0 4 2 2 6 3 2 4 6 7 5 6 7 8 10 11 18 21 20
31 31 31 32 33 33 34 35 36 36 35 32 30 29 27 26 25 24 22 21 22 21 20 17 14 13 12 10 7 4 4 8 12 21 26 25 28 26 21 22 21 18 16 14 13 10 7 4 9 11 7 6 3 3 5 5 3 4 5 6 7 8 8 9 10 8 4 2 3 2 4 2 2 5 3 3 3 4 7 7 9 9 9 12 11 15 19 19
32 31 31 32 33 32 33 35 36 37 36 32 30 29 29 28 26 25 23 23 22 21 19 17 14 13 12 11 8 6 5 5 5 12 23 27 28 30 27 23 22 21 17 14 15 12 8 2 0 8 9 5 4 4 6 7 5 5 6 8 10 10 8 8 7 5 5 3 1 2 2 3 2 5 4 5 4 4 3 3 7 10 11 14 14 14 17 16
34 31 32 33 32 32 33 35 36 36 35 33 32 31 30 28 27 26 24 23 21 20 18 16 15 13 13 12 9 9 9 5 4 5 11 26 30 32 32 27 22 19 16 14 16 11 6 4 5 5 6 6 7 6 7 8 7 6 6 8 10 11 9 10 6 3 5 5 2 4 3 3 3 4 5 6 6 5 1 5 2 1 5 17 19 15 14 13
34 32 33 34 33 33 33 34 36 36 35 36 34 32 31 29 27 26 25 23 21 19 18 17 15 14 13 11 10 10 9 10 1 12 8 15 30 32 34 31 24 19 16 17 17 11 7 8 9 7 5 6 7 8 9 9 8 8 7 8 10 11 10 10 7 2 3 3 4 4 4 3 4 3 4 7 8 9 2 5 5 6 8 15 16 12 13 14
34 34 33 33 33 34 32 33 36 37 37 37 36 33 32 30 29 27 25 24 21 20 18 17 16 15 14 12 10 8 9 19 17 3 17 4 25 32 34 34 29 23 19 20 18 13 10 10 11 7 6 7 6 8 8 6 9 11 9 7 9 10 10 10 8 3 3 3 4 5 5 5 5 3 5 6 6 7 4 5 5 5 8 11 10 10 11 12
35 35 34 33 34 34 33 33 35 37 37 36 35 34 33 32 30 27 26 25 23 20 18 18 17 16 16 13 8 7 16 27 26 15 12 8 16 30 32 32 31 27 20 20 20 17 10 8 9 5 5 6 2 5 2 2 5 7 6 7 9 10 11 11 8 6 3 2 4 7 8 7 7 5 6 8 7 7 4 5 5 6 7 8 9 10 10 10
36 36 35 33 33 34 34 34 34 37 38 36 36 35 33 32 30 27 26 25 23 21 19 19 18 18 19 13 8 9 15 20 23 23 13 5 8 25 28 25 30 28 20 20 20 17 11 8 8 1 0 4 2 2 1 1 2 6 7 10 12 12 12 12 11 10 6 4 6 8 9 8 7 5 6 7 7 8 8 7 7 7 7 8 8 9 10 10
37 37 37 34 33 35 35 34 34 36 37 37 38 36 34 32 30 27 27 25 23 22 20 19 19 19 19 12 10 9 5 7 16 20 18 12 8 19 26 23 26 27 22 19 18 17 13 10 11 5 1 2 3 3 4 2 1 7 9 10 12 13 12 11 12 11 5 4 7 7 10 9 5 7 8 7 4 4 6 9 9 8 7 7 8 8 8 9
38 38 39 35 34 35 35 36 34 36 37 37 37 37 35 32 30 28 27 25 24 22 20 20 19 20 17 10 13 15 3 2 8 8 14 19 15 15 22 22 23 26 23 17 16 19 16 10 16 8 3 5 4 1 4 1 2 4 7 9 10 12 12 12 11 10 6 5 6 3 8 10 8 11 10 7 5 4 4 7 7 8 7 7 8 7 7 9
38 38 40 37 35 35 35 36 35 36 38 38 38 37 35 32 30 28 27 26 25 23 22 20 19 20 14 7 17 25 15 7 4 4 9 15 18 15 18 22 23 23 21 16 15 17 17 16 19 10 3 6 4 3 2 4 4 3 4 5 8 9 12 11 8 11 9 7 7 4 6 8 9 14 13 8 9 9 8 9 8 7 7 7 7 6 7 9
38 39 41 38 36 36 36 36 35 35 38 39 39 37 35 32 31 29 27 26 25 24 22 20 21 19 12 9 18 24 24 21 13 9 7 11 18 16 15 20 22 21 17 12 8 8 12 15 14 5 1 1 2 4 4 4 4 2 1 3 4 6 9 8 7 11 11 7 8 7 8 8 6 10 11 9 12 12 12 12 10 9 7 7 8 7 7 9
38 38 39 37 36 36 36 37 36 35 37 38 38 38 36 33 32 30 28 27 26 24 23 21 20 15 7 11 15 17 22 23 19 15 10 9 14 14 15 16 17 19 17 12 7 4 10 11 5 3 1 1 3 4 3 2 2 3 2 4 4 8 9 7 7 10 11 8 11 10 7 6 8 9 9 8 10 13 14 12 10 10 9 8 8 8 8 8
38 38 38 38 37 36 35 37 37 36 37 38 39 39 37 34 33 31 29 27 25 25 22 17 19 15 6 6 8 13 17 17 20 22 17 10 9 12 15 13 10 13 14 12 8 7 13 12 3 2 3 2 4 5 4 3 2 4 5 6 6 8 8 7 9 11 11 8 10 13 7 3 5 8 8 10 11 12 12 11 10 11 11 9 7 8 8 7
39 38 38 38 38 36 36 36 37 37 37 38 39 38 36 33 32 32 29 28 25 26 21 11 14 13 6 5 4 8 16 18 19 22 26 20 11 10 13 12 7 10 10 8 10 12 11 9 4 2 3 3 5 5 5 6 6 6 6 7 7 9 8 6 8 9 10 11 9 11 10 7 6 9 10 10 10 9 10 10 10 10 9 9 7 7 8 8
38 37 38 38 37 36 37 37 37 37 37 37 38 37 36 33 32 31 28 26 22 20 15 7 10 9 7 13 11 8 15 21 19 20 27 25 14 11 10 10 8 11 11 4 7 10 6 5 4 4 5 5 6 7 8 10 11 9 7 7 7 9 10 8 8 4 3 10 12 11 11 11 9 11 12 12 12 9 8 8 8 8 7 7 7 7 8 9
37 37 38 38 38 37 37 38 37 38 38 38 38 38 35 28 25 26 24 22 16 10 9 8 10 7 4 10 14 12 12 18 21 21 25 25 18 12 7 7 10 11 9 4 6 8 5 4 4 6 7 9 12 12 12 12 10 10 9 8 7 8 8 8 8 4 1 4 9 10 11 11 10 11 11 11 11 11 10 8 7 7 6 6 6 6 7 8
34 36 37 37 38 36 36 38 38 38 40 39 40 33 22 16 11 10 13 13 11 9 8 11 13 8 1 2 10 18 12 13 18 18 24 27 18 12 6 4 8 10 9 8 8 8 7 6 6 9 11 13 16 16 15 13 9 10 10 9 9 8 7 8 6 3 4 2 7 9 10 11 10 10 11 10 10 12 13 12 10 8 7 7 7 7 7 7
34 36 36 36 37 35 36 39 37 38 40 41 41 22 9 13 8 6 12 8 12 13 7 11 17 13 2 7 3 19 13 7 12 13 22 24 15 11 5 5 9 8 10 11 8 7 9 10 10 13 15 14 15 16 15 14 13 13 10 8 9 9 8 8 5 3 5 4 6 7 9 12 11 10 11 11 11 13 12 13 12 11 11 9 10 10 9 7
34 35 36 37 37 36 37 39 36 38 41 42 37 15 8 18 9 12 19 7 11 16 8 11 16 14 8 5 3 14 13 7 10 11 17 20 13 11 7 8 12 9 11 13 6 6 9 10 14 16 16 14 13 15 15 14 14 12 8 8 9 8 6 7 7 4 3 3 4 5 9 12 11 12 13 13 13 12 10 12 12 11 12 11 11 11 10 9
33 34 36 36 37 38 36 38 36 39 43 39 31 16 18 25 15 21 21 3 7 15 10 11 14 14 13 4 2 8 10 8 10 11 18 20 12 10 10 8 13 11 13 14 8 7 7 11 18 18 16 16 15 15 15 13 11 10 8 8 8 8 7 5 5 5 4 4 5 6 9 10 10 11 13 14 15 13 11 13 13 12 11 11 12 11 10 11
33 33 35 35 38 37 36 38 36 39 41 36 33 29 31 30 23 29 19 1 6 12 12 12 9 11 14 9 4 6 6 6 8 10 17 19 10 9 11 9 11 11 11 15 15 12 9 9 14 15 15 17 16 14 15 11 9 11 12 11 10 10 10 7 4 4 5 5 6 6 9 10 9 10 11 11 13 15 14 14 15 13 10 10 10 11 11 11
33 33 35 36 37 38 39 36 32 37 36 32 35 35 38 34 28 31 16 1 6 7 10 12 4 7 13 11 8 5 3 4 6 10 17 18 12 9 9 7 8 10 12 17 16 14 12 7 10 14 15 16 16 14 15 12 8 10 12 13 13 11 11 9 6 3 4 6 6 5 7 10 8 10 12 10 11 15 14 15 17 13 11 12 11 10 11 11
33 33 35 37 37 40 35 22 24 34 28 26 34 35 39 35 30 30 11 2 5 6 10 12 5 9 12 10 9 4 3 4 4 10 19 21 15 9 8 6 5 9 12 13 9 6 8 8 10 15 15 15 16 14 14 14 9 9 11 13 15 14 11 9 7 5 4 5 3 6 7 11 7 9 11 9 11 16 15 15 16 13 13 14 13 12 11 12
32 32 35 38 38 39 25 10 21 30 18 21 36 39 41 36 29 24 6 2 5 6 10 10 6 11 13 10 13 8 5 5 5 8 15 20 16 9 8 9 6 8 7 6 5 3 7 10 9 12 14 14 13 12 14 15 11 8 8 11 13 14 13 10 8 6 5 5 4 4 6 9 9 9 9 8 10 13 13 14 14 13 14 15 14 14 14 13
32 33 34 37 39 39 29 17 21 24 19 27 38 42 44 39 28 17 4 2 5 5 9 7 4 9 10 10 16 11 5 7 8 8 14 18 14 6 8 11 11 12 9 7 7 4 9 15 13 13 13 10 11 13 14 15 11 5 2 5 8 8 9 7 6 6 5 5 8 9 7 8 13 10 7 9 13 14 14 13 13 12 13 14 15 15 14 14
32 33 34 37 37 37 36 27 21 25 31 35 41 46 46 36 20 7 2 4 3 3 7 8 6 7 8 10 14 12 8 5 5 7 13 13 8 3 5 8 10 14 11 9 8 4 4 11 13 14 11 9 11 13 11 12 9 3 6 4 2 2 1 1 3 4 3 6 10 11 8 7 14 12 7 9 13 15 14 12 12 12 12 11 13 14 14 14
33 33 33 35 32 33 36 29 25 32 35 38 45 48 41 25 11 5 5 5 3 4 6 7 8 11 14 13 11 13 13 6 2 7 11 9 7 4 2 2 3 7 9 8 9 6 4 4 3 6 7 7 9 10 10 12 9 6 5 4 3 4 3 3 1 0 1 6 11 14 13 10 14 14 8 9 12 13 11 11 11 12 12 11 10 11 13 13
34 33 33 34 32 31 27 18 23 35 39 44 47 40 24 10 4 5 7 4 4 6 6 7 10 14 18 16 10 13 15 8 5 9 9 7 8 6 3 1 1 2 4 5 6 8 8 6 0 1 5 6 7 7 8 10 8 6 4 5 4 1 1 2 1 1 4 7 9 14 16 14 15 14 7 8 13 14 13 13 11 11 13 12 11 10 11 11
33 33 33 34 33 32 24 17 24 35 45 50 39 21 10 5 2 4 5 5 4 7 9 11 14 16 19 18 12 12 14 10 8 10 9 8 8 8 8 6 6 5 6 5 6 7 8 9 6 3 5 9 8 5 4 5 7 6 5 6 4 2 1 3 4 4 6 9 8 11 14 14 16 17 11 11 14 14 15 15 13 12 12 12 12 11 10 10
31 32 33 33 32 32 29 26 30 40 50 47 26 7 6 8 6 4 5 5 6 9 11 13 16 17 18 16 11 12 12 9 10 9 8 9 8 8 10 9 9 7 5 6 9 7 6 9 11 7 3 7 9 6 5 6 7 9 8 7 8 7 5 7 7 6 7 10 11 12 10 7 9 13 13 18 21 16 15 15 14 14 13 12 11 10 9 9
31 31 31 32 32 31 29 27 35 48 47 32 16 7 7 8 6 7 6 5 6 11 11 12 14 14 14 14 11 12 10 8 11 11 8 9 7 7 9 10 11 6 2 5 7 7 9 8 10 12 6 7 11 10 8 8 9 11 10 8 8 7 5 7 7 7 7 8 8 9 7 5 6 9 9 14 19 18 18 17 14 13 11 9 9 9 9 9
30 30 29 29 29 29 28 27 39 53 40 16 9 9 9 7 5 7 7 5 7 11 12 14 16 13 12 11 10 12 10 7 11 11 8 9 7 7 8 9 12 9 4 6 5 6 11 8 8 14 12 12 14 12 9 8 6 8 6 6 8 9 7 5 4 5 3 4 3 4 4 3 5 12 9 8 12 12 16 18 18 18 15 11 10 9 8 8
26 26 24 23 26 29 31 32 41 48 32 10 7 7 6 5 6 8 9 7 9 13 16 14 12 11 10 8 9 14 12 7 10 10 7 9 8 9 9 7 12 13 8 7 4 5 8 7 8 14 13 15 16 14 12 9 5 4 6 7 7 6 5 3 5 4 2 6 5 3 6 2 4 12 10 13 15 9 10 15 18 20 19 17 14 10 9 8
19 17 14 16 24 29 33 40 43 37 22 10 9 7 6 3 5 8 8 8 11 16 16 12 8 9 10 8 9 14 13 8 11 10 7 9 9 10 11 8 11 16 13 9 5 3 4 5 7 13 13 14 15 14 14 12 7 4 5 8 3 3 2 1 4 5 5 9 6 6 12 5 2 7 6 11 14 9 10 13 14 16 16 16 15 12 12 11
15 12 7 13 24 30 36 46 43 25 11 9 9 7 5 3 6 9 8 9 14 16 12 9 7 8 9 9 9 12 13 9 10 10 8 8 6 10 15 10 10 16 16 13 7 2 3 3 4 12 14 11 11 11 11 12 14 7 3 7 6 2 3 5 3 5 7 8 6 11 16 9 7 10 7 8 11 10 11 12 12 15 15 14 14 13 13 12
13 8 3 13 27 33 41 46 32 14 6 9 9 6 3 3 8 11 10 10 12 13 11 8 7 6 8 10 9 11 13 11 11 9 7 7 6 11 16 11 9 16 17 15 9 2 4 4 4 8 12 10 8 9 8 9 13 8 2 4 6 3 5 7 5 5 6 8 7 10 13 7 8 13 14 14 14 11 10 11 12 14 14 13 12 12 12 12
8 3 2 18 32 38 45 36 15 6 7 7 7 6 5 5 9 12 12 11 8 6 8 9 9 8 7 9 9 10 12 11 11 8 6 8 7 9 15 13 10 13 16 17 12 5 3 3 5 5 8 9 6 8 12 12 11 9 6 7 8 4 2 4 7 6 6 7 7 9 11 6 6 11 15 18 18 15 12 11 11 12 13 13 12 13 13 12
5 2 3 23 39 43 38 19 4 5 6 4 3 5 7 5 7 12 14 11 4 2 3 9 10 8 7 9 9 9 9 8 10 8 6 9 9 7 11 15 13 12 14 14 12 9 5 4 6 5 4 6 7 9 14 14 12 12 10 10 10 8 4 4 7 6 5 6 6 7 11 6 3 5 10 13 15 14 14 13 12 12 13 13 14 16 14 12
5 2 5 28 44 40 24 7 3 5 3 4 4 4 7 5 7 13 14 9 4 2 2 6 9 7 6 7 8 9 9 7 10 9 6 10 12 8 9 15 15 11 10 10 10 10 6 3 6 7 5 6 7 5 5 6 6 9 11 12 11 9 7 7 8 7 6 8 7 7 10 7 3 5 6 6 8 9 11 12 10 12 13 14 16 15 12 11
4 1 9 36 48 33 13 5 6 3 1 4 5 4 5 3 7 12 11 8 6 2 2 5 7 7 5 5 6 8 9 8 10 11 8 9 11 8 9 14 15 11 8 7 8 7 4 2 4 7 6 6 6 4 5 4 1 4 9 11 11 11 11 11 10 8 7 9 7 7 11 9 6 7 8 8 8 8 9 10 10 10 11 13 14 11 9 9
3 1 6 33 49 31 9 6 7 4 4 7 7 6 3 1 4 9 11 9 6 4 6 5 6 7 5 5 5 6 7 7 9 11 7 7 8 10 11 12 13 12 8 7 8 6 4 5 6 6 6 6 6 6 7 4 2 2 6 9 12 14 15 12 9 7 8 10 10 9 10 9 6 8 11 11 11 11 9 8 9 9 9 9 9 8 8 8
3 1 1 17 32 22 5 4 7 7 9 10 10 11 8 2 1 2 6 5 3 5 6 5 7 9 6 5 5 3 4 3 5 8 6 4 5 7 9 11 12 11 8 10 12 9 6 6 7 8 9 10 9 7 8 7 5 3 4 9 14 16 18 13 9 8 10 11 12 11 10 9 7 9 13 14 15 14 9 4 1 3 4 5 5 6 6 5
2 1 1 4 9 8 1 1 5 6 9 11 10 9 10 8 3 1 3 2 1 4 6 5 8 9 7 7 5 4 4 1 3 3 4 4 3 2 3 5 8 9 9 11 11 7 4 6 9 12 13 13 10 5 3 4 6 6 9 13 15 17 19 15 10 10 11 10 12 13 11 11 13 16 15 12 13 14 10 4 2 1 1 4 5 5 4 4
1 0 2 1 1 3 2 2 4 5 8 10 8 9 12 11 7 5 3 1 2 5 4 4 9 9 10 12 7 4 4 2 2 2 2 2 1 2 3 4 1 2 3 6 7 5 2 5 11 15 17 17 15 10 4 3 6 8 11 13 14 16 19 17 13 14 12 9 12 14 13 14 18 21 19 14 10 9 8 6 4 4 4 4 5 5 5 4
1 0 1 1 1 4 4 6 8 8 10 9 5 7 13 13 12 10 5 3 6 6 4 4 10 12 14 14 9 5 5 3 3 5 4 2 0 2 3 2 1 3 5 4 4 4 2 4 8 12 15 17 17 16 12 6 5 7 7 9 11 14 17 17 17 17 16 13 14 14 14 17 21 23 20 15 11 9 8 7 6 6 6 6 5 6 7 6
1 1 1 3 1 3 5 10 14 12 13 11 6 8 13 15 15 11 6 7 8 7 6 7 10 12 13 13 9 7 9 7 5 6 4 3 2 2 1 2 2 1 3 4 1 1 1 5 7 8 11 15 16 16 16 16 13 11 11 10 9 10 13 14 12 14 16 15 15 15 15 17 19 20 15 11 11 10 8 7 8 7 8 8 8 8 7 6
1 1 1 1 1 3 5 8 12 11 11 10 7 8 11 14 15 10 6 9 10 10 9 8 10 12 12 13 11 9 12 11 5 4 5 4 3 3 2 2 1 2 4 4 2 0 1 4 6 6 7 12 14 14 16 17 17 18 18 16 14 13 14 13 11 10 12 11 11 13 15 15 16 17 12 9 9 9 8 9 9 8 9 9 8 7 5 4
1 1 0 1 2 4 5 6 8 8 9 8 7 9 11 14 15 10 6 6 7 9 10 9 10 10 8 11 12 10 10 9 5 7 9 8 6 4 4 3 3 3 3 2 3 4 4 3 3 4 6 10 12 13 15 16 16 19 20 19 17 15 15 15 13 11 11 10 10 11 11 12 16 16 12 10 11 13 13 12 8 7 7 8 7 6 5 5
2 2 1 0 2 4 6 6 7 7 8 8 8 9 10 12 14 11 7 4 3 5 8 10 10 8 7 11 13 9 8 8 6 5 6 7 7 6 6 6 6 5 4 3 3 4 5 3 2 4 6 10 12 12 12 12 13 13 14 17 18 17 17 17 14 12 12 10 9 10 10 10 12 12 11 12 15 15 15 12 8 7 7 6 6 7 7 7
Wind_Direction
263 261 255 250 246 240 237 236 233 232 233 233 232 233 232 230 230 228 228 228 230 233 236 240 241 240 239 241 247 255 258 250 242 232 230 230 219 213 222 219 219 222 211 214 235 240 227 215 217 218 220 211 191 210 228 229 214 203 200 226 243 243 241 242 254 274 286 155 145 153 191 218 150 159 130 101 254 202 155 185 141 111 94 108 123 127 130 138
261 261 258 254 249 243 237 235 234 231 230 231 231 231 231 229 227 227 226 227 227 227 231 236 236 233 234 232 237 251 259 255 251 243 237 231 218 215 218 212 208 203 194 211 230 234 235 234 225 212 210 218 194 187 200 195 191 212 220 221 233 244 251 262 270 281 299 348 113 147 173 258 165 149 138 157 200 197 193 202 171 145 115 119 131 134 137 145
259 259 259 256 251 245 238 235 234 233 229 229 229 228 228 228 226 225 223 224 225 225 228 232 231 230 228 223 228 243 259 267 258 248 243 231 218 213 212 213 210 199 194 209 230 243 259 289 302 274 215 221 217 192 193 181 186 205 220 237 235 240 255 264 274 285 309 349 333 222 128 194 196 126 132 212 209 199 202 206 186 186 160 147 147 143 146 152
257 256 256 256 254 247 241 236 234 233 230 227 227 227 226 226 225 225 222 223 226 226 228 228 226 224 224 222 221 220 250 277 261 251 247 233 220 212 209 213 212 207 201 211 234 259 287 319 327 301 244 215 235 241 217 195 189 202 207 233 245 247 258 257 268 293 295 294 299 318 103 192 216 122 151 201 229 222 207 211 197 197 178 157 158 157 155 157
256 254 254 254 254 251 244 238 233 232 230 227 226 225 225 224 223 223 222 223 226 226 226 224 220 216 219 218 213 209 219 253 268 256 242 230 221 214 211 213 212 212 208 219 237 251 271 211 22 287 263 223 200 234 239 215 199 227 228 227 244 254 264 267 278 339 357 26 357 284 170 216 180 141 183 203 227 234 187 233 204 193 183 164 162 163 162 162
255 252 251 251 252 251 246 239 234 231 229 228 226 224 224 223 222 221 221 222 223 224 221 219 214 208 212 211 209 209 210 224 35 27 230 217 218 217 212 211 211 210 207 219 232 229 230 199 186 231 260 245 214 212 234 229 210 228 246 235 245 252 260 277 293 33 26 360 319 268 257 236 204 173 197 210 236 255 68 43 40 172 157 159 161 162 166 169
253 251 250 249 248 248 246 239 234 231 228 227 225 224 223 222 222 220 220 220 220 218 216 215 209 202 204 202 209 218 226 244 261 45 23 215 216 217 210 208 207 201 199 211 222 217 201 205 206 200 222 248 239 224 223 237 248 242 239 240 248 255 256 265 273 153 131 274 280 302 314 275 231 200 204 210 226 246 250 76 72 38 82 137 153 162 171 174
251 250 249 247 246 245 245 240 236 232 228 227 225 224 223 223 221 219 217 218 217 214 212 210 205 199 194 191 207 225 235 236 229 339 8 295 215 212 202 201 202 196 198 210 214 211 206 206 205 204 215 225 251 252 228 228 263 257 243 247 253 259 261 259 264 238 164 216 275 290 289 267 250 260 257 240 234 236 214 120 118 87 100 134 152 168 176 179
250 249 247 245 245 243 242 240 236 232 227 226 225 221 222 222 219 218 216 214 214 212 209 206 202 194 189 194 207 233 237 234 234 252 339 5 208 204 193 192 195 192 197 211 214 210 206 201 202 216 214 199 250 286 284 194 260 276 277 289 283 274 269 268 272 265 240 213 254 258 246 244 251 268 264 243 247 254 216 149 150 144 148 160 163 173 182 184
247 247 246 243 242 240 239 239 237 233 227 225 224 219 219 220 216 216 214 212 211 209 208 203 199 192 188 195 206 232 249 239 236 242 262 344 189 193 191 189 189 188 195 208 214 209 204 195 181 101 335 174 168 260 328 189 296 331 312 298 293 290 278 268 266 251 235 218 229 244 246 244 236 232 241 224 221 240 231 201 179 169 180 183 177 180 184 187
245 245 246 242 240 240 238 238 237 234 228 225 225 220 217 216 213 212 212 210 207 206 206 201 197 195 191 195 210 226 273 242 232 238 243 249 214 188 194 196 188 187 192 202 212 212 218 203 160 115 345 166 147 246 276 242 346 332 320 309 291 288 280 263 263 252 223 212 222 235 255 254 231 222 225 221 221 237 237 222 196 183 193 196 190 185 182 191
244 244 245 241 239 239 237 236 235 232 228 223 223 220 216 213 209 209 208 207 205 203 203 201 195 197 198 204 220 221 244 274 233 232 230 231 228 206 200 200 195 192 193 199 206 212 226 193 156 163 188 152 135 241 272 169 83 308 321 326 300 290 275 258 260 252 214 198 209 216 260 249 225 236 232 214 239 258 259 248 215 188 191 204 201 190 183 191
242 242 243 240 237 236 235 233 232 231 228 223 220 218 215 211 206 204 204 204 203 200 200 200 194 198 205 220 229 225 229 255 265 262 234 218 220 220 208 207 204 198 197 204 202 208 219 187 167 183 179 155 153 131 151 115 118 250 298 309 301 295 267 252 253 253 235 203 191 184 254 246 215 233 234 208 221 233 239 240 227 204 192 200 206 196 187 189
240 241 241 239 235 234 234 232 230 229 228 223 220 217 213 209 204 199 199 200 198 196 198 198 194 198 211 236 240 233 234 245 262 285 267 213 210 211 204 208 211 210 210 213 211 207 204 178 162 163 31 181 161 128 130 117 130 163 272 269 274 274 261 254 238 239 239 204 182 197 243 253 232 236 235 216 209 215 228 228 219 219 205 194 199 201 196 191
239 240 240 238 234 233 233 232 230 228 226 222 217 214 211 209 204 197 195 196 194 192 193 197 195 194 220 249 250 236 231 240 247 254 253 221 214 207 197 200 206 216 223 225 235 220 173 155 128 132 132 289 166 149 145 135 140 134 182 238 230 245 262 274 255 236 236 209 183 202 240 246 239 246 247 245 225 211 224 229 218 221 220 206 194 198 204 198
239 238 238 235 233 233 232 231 229 225 224 221 215 213 210 207 204 197 192 189 189 187 186 194 201 201 226 244 236 223 217 224 229 233 238 236 233 217 198 188 182 191 210 222 213 180 163 156 133 150 152 174 170 165 160 164 188 171 206 230 216 231 254 267 261 247 248 242 192 200 228 237 241 252 241 245 242 220 219 231 224 220 226 220 200 193 203 204
240 238 238 234 231 231 230 230 227 221 221 219 214 211 207 205 204 196 188 184 183 181 179 180 193 203 253 247 210 201 201 206 211 219 229 234 237 229 200 180 161 148 164 194 174 156 156 158 151 151 160 182 178 168 179 195 208 197 201 228 224 227 242 252 253 243 245 257 226 205 231 245 259 275 269 264 259 232 212 228 232 220 223 224 207 195 198 201
240 237 236 233 232 230 229 229 225 221 219 215 211 208 203 202 202 195 185 175 168 166 170 162 168 183 253 244 228 200 191 198 195 200 220 228 226 228 209 174 146 134 140 152 166 160 160 168 160 168 171 184 190 183 196 207 209 203 195 215 224 224 234 244 255 260 256 259 239 211 228 238 237 252 264 272 275 264 229 227 240 232 229 228 214 206 201 199
239 234 232 231 231 229 228 226 224 220 215 211 207 203 199 196 194 193 181 165 153 155 171 176 176 179 242 234 220 209 192 186 189 194 208 218 215 203 201 178 152 146 153 158 177 177 166 158 166 187 187 190 196 194 205 212 202 201 206 214 221 225 230 228 239 257 46 284 254 230 242 248 238 236 243 251 255 258 249 234 234 236 240 241 231 225 214 205
235 232 228 227 227 227 227 224 222 217 211 205 198 195 195 184 178 189 176 170 182 184 174 173 187 202 20 2 205 201 196 178 184 192 199 208 205 182 183 198 170 166 181 179 172 173 173 180 188 196 199 196 196 198 209 217 210 212 220 222 225 231 234 218 215 199 141 208 261 257 271 272 262 254 246 246 243 242 243 236 230 226 230 240 241 242 234 222
232 231 227 226 225 225 226 223 220 216 209 200 190 190 192 170 163 169 163 186 210 195 183 177 192 212 251 11 190 182 180 178 183 187 195 200 192 180 183 186 185 184 191 186 161 160 184 200 201 198 203 201 197 201 209 217 221 225 226 226 228 230 236 232 214 166 146 190 252 259 275 276 273 277 266 258 250 242 238 237 237 227 221 228 231 234 238 238
230 230 226 224 223 224 225 222 221 215 207 196 188 197 190 168 158 160 160 175 211 198 207 184 191 226 250 352 64 161 162 167 183 182 184 186 181 185 183 182 195 190 187 188 159 164 197 211 208 202 203 204 200 200 207 217 224 228 229 232 236 224 227 238 224 197 157 194 250 249 260 266 264 268 270 266 261 254 243 239 242 232 222 222 223 223 227 233
229 226 223 223 221 222 223 220 220 213 204 192 187 200 187 171 151 154 161 157 195 195 210 189 187 218 231 254 65 163 172 166 178 178 175 179 182 190 191 196 204 197 190 192 180 180 199 211 211 204 198 202 202 196 201 217 226 228 228 233 240 227 222 232 211 201 202 226 257 255 259 264 256 253 255 260 265 266 258 248 242 235 226 219 215 216 218 222
229 223 222 222 218 220 220 218 218 210 203 191 189 196 184 171 154 156 165 124 176 191 205 200 193 206 220 225 183 185 196 177 180 174 173 180 176 182 202 208 208 209 202 198 197 202 213 212 208 203 195 200 205 200 200 212 223 225 224 229 238 232 232 238 220 208 218 235 253 264 274 265 244 244 245 247 259 262 261 255 248 238 234 232 219 213 216 216
228 222 220 219 218 221 217 216 216 208 202 194 193 192 177 167 159 164 169 123 171 179 193 200 217 219 220 211 189 190 205 208 201 170 172 187 180 168 200 208 205 217 210 203 204 210 219 202 185 196 195 196 205 208 203 204 219 228 222 226 236 236 233 237 239 236 243 246 224 210 268 269 235 232 238 230 239 248 249 249 246 237 232 238 233 222 219 218
225 221 219 218 219 219 215 215 214 204 200 198 194 185 173 165 163 173 177 351 190 160 170 182 174 199 203 185 170 173 212 228 213 163 168 189 192 174 195 197 199 220 210 205 210 216 218 198 186 195 193 193 205 212 204 198 215 230 212 211 227 236 236 232 228 224 237 255 215 169 238 270 250 225 228 222 230 237 238 240 242 239 236 236 234 230 224 220
223 220 218 218 217 213 208 201 200 198 197 196 189 178 171 165 168 183 188 345 212 157 156 170 160 181 185 160 152 167 215 179 160 170 171 187 192 184 205 196 192 221 204 195 216 199 194 202 202 193 191 196 205 210 200 192 206 227 206 196 209 222 228 230 229 234 246 269 270 216 233 272 269 241 231 239 248 245 240 239 237 235 235 234 233 233 229 225
221 220 218 218 215 209 205 196 187 191 197 189 179 170 167 166 174 188 186 199 203 141 148 163 152 163 167 153 155 180 225 142 152 186 176 187 191 181 216 206 200 212 198 192 213 186 182 201 206 197 197 201 203 210 201 192 206 225 155 181 201 212 221 224 229 241 252 259 259 243 227 265 271 253 221 231 247 251 249 247 244 239 232 229 230 230 230 231
219 218 217 216 215 210 207 204 190 192 196 184 171 165 163 167 178 185 205 212 191 134 150 151 149 150 155 162 164 188 216 160 164 168 158 182 192 154 226 222 213 215 204 204 219 205 195 209 207 205 208 204 204 209 200 199 209 141 90 127 144 70 97 191 226 242 255 243 247 241 218 243 270 261 216 213 233 241 246 247 248 248 242 231 224 225 228 231
217 216 215 213 213 209 206 209 202 193 188 175 164 159 157 164 180 174 201 211 148 155 158 153 169 161 159 169 173 186 198 192 158 145 151 173 172 155 263 281 248 229 209 208 223 235 263 260 211 208 212 208 212 204 193 205 201 128 115 149 97 63 57 47 48 49 288 243 241 241 222 222 263 263 225 218 235 236 240 240 236 238 244 243 229 223 225 227
216 215 213 210 208 204 201 210 205 189 176 165 157 152 149 155 179 181 188 171 121 148 148 154 167 159 162 172 175 182 192 195 158 159 168 167 166 179 214 218 75 268 227 212 227 238 249 256 288 207 200 197 218 208 198 204 175 133 149 164 135 94 31 21 39 172 239 242 235 235 223 217 246 258 227 221 234 230 236 239 230 224 229 237 237 232 228 225
216 215 212 209 206 201 198 202 195 179 166 158 152 145 143 143 192 205 169 145 151 166 160 162 167 168 172 176 174 177 188 193 173 171 174 165 175 188 195 192 166 184 215 205 205 220 234 228 209 202 188 191 205 195 201 202 156 158 167 142 153 190 200 221 219 214 233 242 230 219 215 212 240 256 248 243 238 225 232 237 232 228 224 227 231 233 232 226
215 214 211 208 202 198 200 197 181 166 159 154 148 138 147 161 186 175 155 163 169 169 162 161 169 171 172 175 178 176 184 196 182 175 174 169 180 194 202 204 188 193 208 196 200 204 221 221 204 201 182 195 205 180 185 191 164 184 184 164 184 194 212 224 222 230 233 240 232 216 214 213 245 255 237 239 244 234 234 234 230 233 229 222 220 223 227 222
214 214 211 206 200 199 199 191 173 161 156 150 140 144 162 172 171 147 166 194 156 154 153 151 158 161 170 181 181 170 178 204 191 177 171 172 185 198 203 207 205 212 206 192 202 200 220 228 195 194 180 176 203 204 195 180 175 198 194 187 200 191 211 222 215 227 235 249 235 207 209 195 218 242 218 230 241 231 229 232 230 234 226 215 217 217 223 223
212 213 213 202 196 200 195 186 171 158 151 144 144 159 167 165 156 149 172 188 156 150 147 148 153 156 173 186 182 177 181 194 190 186 179 179 192 196 193 201 200 199 191 200 199 190 223 240 178 189 189 173 193 209 192 163 177 209 189 189 212 205 216 239 235 221 220 285 252 191 227 195 236 266 261 256 257 230 223 227 229 236 234 235 240 227 221 224
205 209 213 198 189 194 188 180 170 156 146 146 156 161 172 167 169 170 173 178 162 146 141 148 156 159 171 181 185 188 187 181 181 189 194 188 198 199 194 195 188 190 193 197 201 183 215 237 179 184 197 188 190 197 189 175 172 192 193 202 211 202 204 243 267 250 247 270 252 224 265 282 302 281 253 242 255 238 217 219 220 230 231 233 239 230 223 226
195 194 203 200 190 187 179 173 169 157 144 157 167 166 181 181 165 167 168 159 150 145 143 148 160 166 168 177 191 186 182 182 177 182 195 191 198 198 197 198 184 191 197 194 219 213 198 245 194 180 197 199 191 192 200 205 197 176 198 200 168 54 92 191 263 254 246 258 249 243 256 240 234 270 229 221 236 219 214 219 215 221 220 219 224 221 221 222
179 173 182 204 191 179 171 168 165 157 145 167 172 161 165 169 155 164 172 157 150 152 150 147 162 174 168 172 189 180 173 177 176 180 189 187 196 190 191 202 189 192 199 193 212 223 157 256 219 179 191 194 182 191 208 218 214 206 176 179 161 111 189 191 230 233 230 249 249 246 251 232 211 250 256 238 233 215 216 219 215 218 212 211 218 219 222 223
165 172 185 189 181 173 167 163 158 155 159 173 178 167 150 170 168 172 180 167 152 153 157 151 151 161 165 168 176 175 174 179 175 178 187 183 195 188 187 199 193 191 194 188 198 211 156 223 241 182 182 178 172 192 206 213 212 205 150 171 180 191 205 196 201 220 227 239 246 250 251 226 207 240 251 250 246 233 218 213 215 217 210 209 218 221 225 224
155 181 197 173 172 168 162 156 148 159 170 173 182 169 149 163 174 178 185 176 155 149 160 154 145 147 158 167 173 173 176 181 177 180 189 180 185 191 188 194 196 189 188 187 194 198 160 214 233 195 174 176 180 195 201 201 197 193 199 204 199 193 204 201 200 208 224 231 236 250 254 229 194 226 236 239 243 239 229 219 212 212 209 210 219 224 225 226
154 203 184 168 167 162 155 147 134 170 170 172 156 143 155 168 167 174 187 188 163 41 130 145 148 149 148 161 174 174 171 183 187 187 190 183 188 197 188 191 197 187 178 185 194 192 187 200 211 215 192 192 204 201 204 206 195 193 203 207 207 200 185 210 216 206 218 236 231 246 260 255 203 232 232 234 241 239 233 227 209 204 206 209 224 230 225 222
160 219 165 163 162 157 148 138 159 164 178 174 142 142 168 178 166 170 184 188 162 33 64 133 145 148 145 160 170 167 163 179 195 192 194 196 196 197 186 187 196 192 175 185 198 192 188 188 209 229 232 218 221 213 226 243 219 213 214 206 210 207 190 209 224 206 208 234 236 250 265 263 257 283 285 272 267 253 239 230 207 200 203 210 226 230 222 218
162 155 154 161 159 153 146 153 155 151 178 144 125 144 167 167 161 166 176 180 164 134 110 129 140 142 151 165 159 161 163 173 199 198 190 198 201 200 191 185 189 194 182 182 192 186 169 157 213 242 255 254 263 282 305 322 335 244 232 214 210 208 204 214 222 216 219 226 223 241 256 254 250 270 285 296 300 288 257 228 200 195 203 212 220 218 210 210
155 87 148 161 160 156 155 169 153 141 149 132 120 144 159 22 153 168 176 175 167 152 143 138 134 133 149 155 136 162 170 165 197 207 196 189 192 192 195 191 186 189 190 181 173 171 176 173 190 223 242 248 252 253 253 241 162 218 238 231 226 216 214 224 230 234 238 228 221 230 248 251 240 238 249 263 284 294 277 230 200 196 199 204 206 199 195 191
144 132 160 161 161 160 166 175 160 154 152 144 141 151 157 141 103 175 171 155 144 151 140 125 124 122 130 123 97 157 191 144 173 204 217 200 177 181 194 199 193 191 196 184 167 164 184 181 184 208 221 223 222 227 236 226 202 193 211 230 236 224 215 217 221 228 231 226 225 230 241 254 256 249 248 247 252 264 280 304 266 188 165 156 161 169 177 179
140 171 196 147 153 158 130 93 155 158 153 147 147 156 162 157 141 122 136 112 119 143 125 122 128 117 128 143 125 159 197 79 102 174 220 207 166 154 176 186 198 207 205 181 158 148 178 190 195 208 220 227 226 223 224 199 186 193 202 211 223 226 221 215 211 221 225 225 230 231 237 253 259 255 252 246 239 243 255 295 337 285 150 138 157 169 174 187
146 85 161 120 89 127 98 87 143 157 161 156 150 160 165 158 149 156 173 220 166 137 107 129 146 145 157 162 154 164 172 116 91 150 187 191 165 38 50 60 44 260 217 169 147 123 147 202 205 211 222 231 234 231 218 155 164 197 213 211 210 218 223 222 219 221 219 224 236 231 225 240 251 249 247 247 250 254 255 250 242 243 237 208 185 174 174 192
181 80 57 342 208 147 143 167 166 159 164 165 146 150 160 158 158 166 177 177 171 159 127 148 173 173 167 161 157 159 151 135 207 204 174 162 264 9 20 23 15 22 42 97 144 137 154 211 215 219 229 236 238 237 235 228 199 194 207 214 210 213 221 225 227 226 221 224 236 232 219 228 244 249 247 245 252 260 258 247 238 235 235 220 190 185 196 201
93 89 29 342 333 128 132 159 164 162 166 170 163 161 167 167 168 169 155 150 173 186 172 172 181 174 164 165 162 158 166 176 203 201 159 134 170 167 301 274 254 83 91 113 164 293 229 220 220 228 243 247 245 242 239 241 242 235 226 223 220 223 229 232 236 241 242 242 247 250 244 238 244 252 252 247 251 253 249 248 244 232 223 211 199 205 218 208
100 95 119 28 37 73 88 138 157 162 169 174 177 176 174 174 173 170 162 163 172 186 189 180 173 168 165 170 174 182 187 181 161 145 145 147 167 173 190 226 221 187 163 139 122 282 219 223 221 225 250 255 250 246 242 239 242 245 242 234 230 233 239 238 235 244 256 262 264 266 266 261 259 262 260 251 253 260 259 253 241 222 209 201 203 217 226 210
327 293 357 140 134 117 116 140 154 160 170 180 181 173 176 182 177 164 164 183 179 182 185 167 157 164 169 178 190 195 182 171 150 143 158 174 186 175 171 183 178 177 186 161 127 139 169 213 232 222 242 253 244 241 245 243 243 246 246 243 238 236 240 241 235 226 227 238 253 260 261 258 261 268 273 266 258 258 258 254 245 230 210 191 195 216 222 219
331 306 312 316 137 141 144 148 157 168 179 183 177 170 176 181 171 157 153 188 201 179 172 159 151 158 182 200 203 186 153 163 177 157 156 176 186 180 180 187 186 181 179 168 140 144 168 197 240 220 238 256 246 236 242 247 246 243 237 234 234 233 234 241 245 234 216 212 229 242 243 251 266 281 289 276 259 250 250 250 248 249 235 203 201 212 213 220